When you browse on this site, cookies collect data to enhance your experience and personalize the content and advertising you see.
Visit our Privacy Policy to learn more. By continuing to use the site, you agree to this use of cookies and data.
  • In Schweiz
  • Länderverzeichnis
  • Für 7 Tage
  • Wassertemperatur
  • Wetterkarte
  • Widgets
  • user-avatar
    Anmelden

    Stündliche Wetter Freiberg

    Heute, 7 Juni, Sonntag

    Zeit Temperatur Niederschläge Wind Luftdruck Luftfeuchtigkeit
    00:00 +9°C° 0 mm 3 m/S 719 mmHg 85%
    01:00 +9°C° 0 mm 2 m/S 720 mmHg 85%
    02:00 +9°C° 0 mm 2 m/S 719 mmHg 85%
    03:00 +9°C° 0 mm 2 m/S 719 mmHg 85%
    04:00 +9°C° 0 mm 2 m/S 719 mmHg 85%
    05:00 +10°C° 0.2 mm 2 m/S 719 mmHg 87%
    06:00 +10°C° 0.2 mm 2 m/S 719 mmHg 90%
    07:00 +12°C° 0.2 mm 2 m/S 720 mmHg 92%
    08:00 +12°C° 0.4 mm 2 m/S 720 mmHg 92%
    09:00 +13°C° 0.4 mm 2 m/S 720 mmHg 92%
    10:00 +13°C° 0.4 mm 2 m/S 720 mmHg 92%
    11:00 +14°C° 0.3 mm 2 m/S 721 mmHg 86%
    12:00 +15°C° 0.3 mm 2 m/S 721 mmHg 81%
    13:00 +16°C° 0.3 mm 2 m/S 721 mmHg 75%
    14:00 +16°C° 0 mm 2 m/S 721 mmHg 76%
    15:00 +16°C° 0 mm 3 m/S 721 mmHg 76%
    16:00 +14°C° 0 mm 3 m/S 721 mmHg 76%
    17:00 +14°C° 0 mm 3 m/S 721 mmHg 79%
    18:00 +13°C° 0 mm 3 m/S 721 mmHg 81%
    19:00 +12°C° 0 mm 3 m/S 721 mmHg 84%
    20:00 +12°C° 0.1 mm 3 m/S 722 mmHg 85%
    21:00 +11°C° 0.1 mm 3 m/S 722 mmHg 86%
    22:00 +10°C° 0.1 mm 3 m/S 722 mmHg 87%
    23:00 +10°C° 0 mm 2 m/S 722 mmHg 87%

    Morgen, 8 Juni, Montag

    Zeit Temperatur Niederschläge Wind Luftdruck Luftfeuchtigkeit
    00:00 +10°C° 0 mm 2 m/S 722 mmHg 87%
    01:00 +9°C° 0 mm 2 m/S 722 mmHg 88%
    02:00 +9°C° 0 mm 2 m/S 722 mmHg 88%
    03:00 +8°C° 0 mm 2 m/S 722 mmHg 89%
    04:00 +8°C° 0 mm 2 m/S 723 mmHg 89%
    05:00 +9°C° 0 mm 2 m/S 723 mmHg 87%
    06:00 +10°C° 0 mm 2 m/S 723 mmHg 85%
    07:00 +12°C° 0 mm 2 m/S 723 mmHg 83%
    08:00 +13°C° 0 mm 2 m/S 724 mmHg 77%
    09:00 +15°C° 0 mm 2 m/S 724 mmHg 71%
    10:00 +16°C° 0 mm 2 m/S 724 mmHg 65%
    11:00 +17°C° 0.1 mm 2 m/S 724 mmHg 63%
    12:00 +17°C° 0.1 mm 2 m/S 724 mmHg 61%
    13:00 +18°C° 0.1 mm 2 m/S 724 mmHg 59%
    14:00 +18°C° 0.1 mm 3 m/S 724 mmHg 60%
    15:00 +18°C° 0.1 mm 3 m/S 724 mmHg 61%
    16:00 +18°C° 0.1 mm 3 m/S 724 mmHg 62%
    17:00 +17°C° 0.1 mm 2 m/S 724 mmHg 67%
    18:00 +16°C° 0.1 mm 2 m/S 724 mmHg 73%
    19:00 +16°C° 0.1 mm 2 m/S 723 mmHg 78%
    20:00 +14°C° 0 mm 1 m/S 724 mmHg 81%
    21:00 +13°C° 0 mm 1 m/S 724 mmHg 83%
    22:00 +10°C° 0 mm 0 m/S 724 mmHg 85%
    23:00 +10°C° 0 mm 0 m/S 724 mmHg 86%

    übermorgen, 9 Juni, Dienstag

    Zeit Temperatur Niederschläge Wind Luftdruck Luftfeuchtigkeit
    00:00 +9°C° 0 mm 0 m/S 724 mmHg 86%
    01:00 +9°C° 0 mm 0 m/S 725 mmHg 87%
    02:00 +9°C° 0 mm 0 m/S 725 mmHg 87%
    03:00 +9°C° 0 mm 0 m/S 725 mmHg 87%
    04:00 +8°C° 0 mm 0 m/S 725 mmHg 88%
    05:00 +10°C° 0 mm 0 m/S 725 mmHg 84%
    06:00 +12°C° 0 mm 1 m/S 725 mmHg 80%
    07:00 +14°C° 0 mm 1 m/S 726 mmHg 77%
    08:00 +15°C° 0 mm 2 m/S 726 mmHg 72%
    09:00 +17°C° 0 mm 2 m/S 726 mmHg 67%
    10:00 +18°C° 0 mm 3 m/S 726 mmHg 62%
    11:00 +18°C° 0.1 mm 3 m/S 726 mmHg 62%
    12:00 +19°C° 0.1 mm 3 m/S 726 mmHg 61%
    13:00 +19°C° 0.1 mm 3 m/S 726 mmHg 60%
    14:00 +19°C° 0.1 mm 4 m/S 725 mmHg 61%
    15:00 +19°C° 0.1 mm 4 m/S 725 mmHg 62%
    16:00 +19°C° 0.1 mm 4 m/S 725 mmHg 63%
    17:00 +18°C° 0.1 mm 3 m/S 725 mmHg 68%
    18:00 +17°C° 0.1 mm 3 m/S 725 mmHg 72%
    19:00 +16°C° 0.1 mm 2 m/S 725 mmHg 77%
    20:00 +15°C° 0 mm 2 m/S 725 mmHg 79%
    21:00 +14°C° 0 mm 2 m/S 725 mmHg 81%
    22:00 +13°C° 0 mm 2 m/S 726 mmHg 82%
    23:00 +13°C° 0 mm 2 m/S 726 mmHg 84%

    10 Juni, Mittwoch

    Zeit Temperatur Niederschläge Wind Luftdruck Luftfeuchtigkeit
    00:00 +12°C° 0 mm 2 m/S 725 mmHg 85%
    01:00 +12°C° 0 mm 1 m/S 725 mmHg 87%
    02:00 +12°C° 0 mm 2 m/S 725 mmHg 87%
    03:00 +12°C° 0 mm 2 m/S 725 mmHg 87%
    04:00 +12°C° 0 mm 2 m/S 725 mmHg 88%
    05:00 +12°C° 0.2 mm 2 m/S 725 mmHg 89%
    06:00 +12°C° 0.2 mm 2 m/S 725 mmHg 91%
    07:00 +12°C° 0.2 mm 2 m/S 725 mmHg 92%
    08:00 +12°C° 0.4 mm 2 m/S 725 mmHg 93%
    09:00 +12°C° 0.4 mm 2 m/S 725 mmHg 93%
    10:00 +10°C° 0.4 mm 2 m/S 725 mmHg 94%
    11:00 +12°C° 0.1 mm 2 m/S 725 mmHg 93%
    12:00 +12°C° 0.1 mm 2 m/S 725 mmHg 92%
    13:00 +12°C° 0.1 mm 2 m/S 725 mmHg 90%
    14:00 +13°C° 0 mm 2 m/S 725 mmHg 87%
    15:00 +14°C° 0 mm 2 m/S 724 mmHg 85%
    16:00 +14°C° 0 mm 2 m/S 724 mmHg 82%
    17:00 +14°C° 0 mm 1 m/S 724 mmHg 82%
    18:00 +14°C° 0 mm 1 m/S 724 mmHg 82%
    19:00 +14°C° 0 mm 1 m/S 724 mmHg 83%
    20:00 +13°C° 0 mm 1 m/S 724 mmHg 85%
    21:00 +13°C° 0 mm 1 m/S 724 mmHg 87%
    22:00 +12°C° 0 mm 1 m/S 724 mmHg 89%
    23:00 +12°C° 0.3 mm 1 m/S 724 mmHg 90%

    11 Juni, Donnerstag

    Zeit Temperatur Niederschläge Wind Luftdruck Luftfeuchtigkeit
    00:00 +12°C° 0.3 mm 1 m/S 723 mmHg 91%
    01:00 +11°C° 0.3 mm 1 m/S 723 mmHg 92%
    02:00 +11°C° 1.6 mm 1 m/S 723 mmHg 94%
    03:00 +11°C° 1.6 mm 1 m/S 723 mmHg 96%
    04:00 +11°C° 1.6 mm 1 m/S 723 mmHg 98%
    05:00 +10°C° 0.8 mm 2 m/S 723 mmHg 98%
    06:00 +10°C° 0.8 mm 2 m/S 723 mmHg 98%
    07:00 +10°C° 0.8 mm 2 m/S 723 mmHg 98%
    08:00 +12°C° 0.3 mm 2 m/S 723 mmHg 97%
    09:00 +12°C° 0.3 mm 2 m/S 723 mmHg 97%
    10:00 +12°C° 0.3 mm 2 m/S 723 mmHg 96%
    11:00 +13°C° 0.1 mm 2 m/S 723 mmHg 95%
    12:00 +13°C° 0.1 mm 1 m/S 723 mmHg 94%
    13:00 +14°C° 0.1 mm 1 m/S 723 mmHg 92%
    14:00 +14°C° 0 mm 1 m/S 722 mmHg 91%
    15:00 +15°C° 0 mm 1 m/S 722 mmHg 90%
    16:00 +15°C° 0 mm 1 m/S 722 mmHg 90%
    17:00 +15°C° 0 mm 1 m/S 722 mmHg 90%
    18:00 +15°C° 0 mm 1 m/S 722 mmHg 91%
    19:00 +15°C° 0 mm 1 m/S 722 mmHg 92%
    20:00 +14°C° 0 mm 1 m/S 722 mmHg 93%
    21:00 +14°C° 0 mm 1 m/S 722 mmHg 95%
    22:00 +13°C° 0 mm 1 m/S 722 mmHg 96%
    23:00 +13°C° 0 mm 1 m/S 722 mmHg 96%

    12 Juni, Freitag

    Zeit Temperatur Niederschläge Wind Luftdruck Luftfeuchtigkeit
    00:00 +12°C° 0 mm 0 m/S 721 mmHg 96%
    01:00 +12°C° 0 mm 0 m/S 721 mmHg 97%
    02:00 +13°C° 0 mm 1 m/S 721 mmHg 97%
    03:00 +13°C° 0 mm 1 m/S 721 mmHg 97%
    04:00 +13°C° 0 mm 1 m/S 721 mmHg 98%
    05:00 +14°C° 0 mm 1 m/S 721 mmHg 96%
    06:00 +15°C° 0 mm 1 m/S 721 mmHg 94%
    07:00 +16°C° 0 mm 1 m/S 722 mmHg 92%
    08:00 +17°C° 0 mm 2 m/S 722 mmHg 88%
    09:00 +18°C° 0 mm 2 m/S 721 mmHg 84%
    10:00 +19°C° 0 mm 3 m/S 721 mmHg 81%
    11:00 +20°C° 0 mm 3 m/S 721 mmHg 75%
    12:00 +21°C° 0 mm 3 m/S 721 mmHg 70%
    13:00 +24°C° 0 mm 3 m/S 721 mmHg 65%
    14:00 +24°C° 0.1 mm 3 m/S 721 mmHg 65%
    15:00 +24°C° 0.1 mm 3 m/S 720 mmHg 65%
    16:00 +25°C° 0.1 mm 3 m/S 720 mmHg 65%
    17:00 +24°C° 0.2 mm 3 m/S 720 mmHg 71%
    18:00 +22°C° 0.2 mm 3 m/S 720 mmHg 78%
    19:00 +21°C° 0.2 mm 2 m/S 719 mmHg 84%
    20:00 +19°C° 0 mm 2 m/S 719 mmHg 86%
    21:00 +18°C° 0 mm 2 m/S 719 mmHg 89%
    22:00 +18°C° 0 mm 1 m/S 719 mmHg 91%
    23:00 +16°C° 0 mm 1 m/S 719 mmHg 91%
    Mehr zeigen